Current Version              Previous Version:    01  02  03  04  05  06  07  08  09  10  11  12  13  14  15  16  17  18  19  20  21  22  23  24  25  26  27  28  29  30  
   31  32  33  34  35  36  37  38  39  40  41  42  43  44  45  46  47  48  49  50  51  52  53  54  55  56  57  58  59  60  

[Printable]
059
ASUS44 KEWX 191402
RWRTX
SOUTH TEXAS REGIONAL WEATHER ROUNDUP
NATIONAL WEATHER SERVICE AUSTIN/SAN ANTONIO TX
900 AM CDT FRI SEP 19 2014

NOTE: "FAIR" INDICATED FEW OR NO CLOUDS BELOW 12,000 FEET WITH NO
SIGNIFICANT WEATHER AND/OR OBSTRUCTIONS TO VISIBILITY.

* - THESE STATIONS ARE NOT NWS OR FAA STATIONS...AND ARE NOT SUBJECT
    TO NWS AND FAA QUALITY CONTROL.

TXZ171-172-183>190-191500-
TEXAS HILL COUNTRY AND EDWARDS PLATEAU

CITY           SKY/WX    TMP DP  RH WIND       PRES   REMARKS
JUNCTION       CLOUDY    73  69  87 E9        29.96R
*LLANO         CLOUDY    73  73 100 CALM      29.97R FOG
BURNET         CLOUDY    73  71  93 E5        29.97R
*HORSESHOE BAY CLOUDY    74  74 100 CALM      29.94R FOG
*KERRVILLE     RAIN      74  72  93 CALM      29.95R
*FREDERICKSBRG CLOUDY    73  72  95 E5        29.95R FOG
*ROCKSPRINGS   CLOUDY    72  72 100 SE6       29.98R
*BOERNE STAGE  CLOUDY    73  72  94 CALM      29.94R
*CASTROVILLE   CLOUDY    77  75  95 E3        29.93R
HONDO          CLOUDY    78  75  90 S8        29.93R
*UVALDE        CLOUDY    75  75  99 E5        29.91R FOG
DEL RIO        CLOUDY    76  72  87 E8        29.87R
LAUGHLIN AFB   CLOUDY    75  73  94 SE8       29.88R
CARRIZO SPRGS  CLOUDY    77  73  88 E6        29.87R
$$

TXZ173-191>194-202-209-217>225-228-191500-
CENTRAL AND SOUTH CENTRAL TEXAS

CITY           SKY/WX    TMP DP  RH WIND       PRES   REMARKS
GEORGETOWN     FOG       73  72  94 NE8       29.94R VSB 1/4
AUSTIN/BERGSTM CLOUDY    76  74  93 NE6       29.91R
AUSTIN/MABRY   CLOUDY    75  73  93 VRB6      29.93R
*AUSTIN/EXEC   CLOUDY    73  73 100 NE6       29.93R
*LAGO VISTA    FOG       73  72  94 NE7       29.95R VSB<1/4
SAN MARCOS     CLOUDY    75  72  88 NE5       29.92R FOG
NEW BRAUNFELS  CLOUDY    78  75  90 NE6       29.90R FOG
RANDOLPH AFB   CLOUDY    77  75  94 E5        29.91R FOG
PT SAN ANTONIO PTSUNNY   77  75  94 E5        29.89R
SAN ANTONIO    PTSUNNY   79  75  87 SE7       29.91R
STINSON FIELD  CLOUDY    78  76  93 E5        29.89R
*PLEASANTON    PTSUNNY   78  76  94 E3        29.90R
*LA GRANGE     PTSUNNY   78  76  94 NE3       29.90R
*GIDDINGS      DRIZZLE   74  73  95 E5        29.96R
*GONZALES      CLOUDY    77  77  99 E5        29.90R FOG
$$

TXZ163>164-176>182-195>201-210>213-226-227-235-191500-
SOUTHEAST TEXAS

CITY           SKY/WX    TMP DP  RH WIND       PRES   REMARKS
COLLEGE STN    CLOUDY    74  73  97 E9        29.93R
*BRYAN         CLOUDY   N/A N/A N/A E5        29.93R
*CALDWELL      PTSUNNY   73  73 100 CALM      29.95R
*CROCKETT      CLOUDY    75  75 100 E3        29.97S
*BRENHAM       CLOUDY    76  74  95 E3        29.93R
HUNTSVILLE     CLOUDY    75  73  93 E3        29.93S
CONROE         RAIN      73  72  96 CALM      29.94R FOG
HOUSTON BUSH   RAIN      75  74  96 E5        29.92R FOG
HOUSTON HOBBY  LGT RAIN  75  74  96 S3        29.93R
*HOUSTON SW AP HVY RAIN  66  65  99 N5        29.93R VSB 1
PEARLAND       HVY RAIN  76  74  93 S3        29.95R FOG
HOUSTON HOOKS  LGT RAIN  74  72  93 E3        29.92R
ELLINGTON FLD  RAIN      75  75 100 SW5       29.95R
SUGAR LAND     HVY RAIN  74  72  93 NW3       29.93R FOG
*HOUSTON EXEC  RAIN      73  73 100 S3        29.94R
*CLEVELAND MUN CLOUDY    75  74  95 CALM      29.94R FOG
*WHARTON       RAIN      75  74  96 NE5       29.91R
$$

TXZ214>216-236>238-191500-
THE UPPER TEXAS COAST

CITY           SKY/WX    TMP DP  RH WIND       PRES   REMARKS
*ORANGE        CLOUDY   N/A N/A N/A E5        29.94R
PORT ARTHUR    PTSUNNY   78  74  87 E9        29.91R
GALVESTON      CLOUDY    77  74  90 S9        29.93R
ANGLETON         N/A    N/A N/A N/A MISG      29.91R
*BAY CITY      PTSUNNY  N/A N/A N/A E6        29.90R
PALACIOS       NOT AVBL
$$

TXZ229>234-239>247-191500-
TEXAS COASTAL BEND AND RIO GRANDE PLAINS

CITY           SKY/WX    TMP DP  RH WIND       PRES   REMARKS
VICTORIA       PTSUNNY   79  77  94 NE8       29.89R
*BEEVILLE      MOSUNNY   78  78  99 NE3       29.88R
ROCKPORT       SUNNY     85  77  77 SE3       29.86R HX  95
*PORT ARANSAS  MOSUNNY   85  77  77 S6        29.85S HX  95
*PORT LAVACA   SUNNY     79  78  95 NE6       29.88R
*INGLESIDE     LGT RAIN  84  77  80 CALM      29.85R HX  93
CORPUS CHRISTI PTSUNNY   82  78  88 CALM      29.86R HX  91
CORPUS NAS     PTSUNNY   82  80  94 CALM      29.85R HX  94
*ROBSTOWN      SUNNY     82  79  89 CALM      29.87R HX  93
ALICE          MOSUNNY   80  78  94 MISG      29.86R
KINGSVILLE NAS PTSUNNY   81  80  97 NE3       29.86R HX  91
COTULLA        CLOUDY    80  75  84 SE6       29.88R
*FAITH RANCH   PTSUNNY   77  75  94 E3        29.87R
LAREDO         CLOUDY    80  78  94 SE6       29.88R
$$

TXZ248>255-191500-
DEEP SOUTH TEXAS

CITY           SKY/WX    TMP DP  RH WIND       PRES   REMARKS
BROWNSVILLE    MOSUNNY   82  79  90 S6        29.84R HX  92
PORT ISABEL    MOSUNNY   83  78  85 S6        29.84R HAZE    HX  93
*SOUTH PADRE   MOSUNNY   86  79  79 S9        29.84R HX  99
HARLINGEN      MOSUNNY   81  80  97 S5        29.84R HX  91
*HEBBRONVILLE    N/A     78  76  91 SE8       29.87R FOG
MCALLEN        PTSUNNY   81  78  91 S8        29.85R
*WESLACO       SUNNY     83  76  81 SE9       29.84R HAZE    HX  91
FALFURRIAS     MOSUNNY  N/A N/A N/A CALM      29.85R
EDINBURG       SUNNY     82  78  89 SE5       29.85R FOG     HX  91
*ZAPATA        NOT AVBL
$$

TXZ213>215-236>238-242>244-246-247-251-254-255-191500-
CMAN STATIONS

STATION/POSITION TIME  TEMP    WIND        PRES    WAVE
                       AIR SEA DIR/SP/G            HT/PER
                 (UTC) (F)     (DEG/KT/KT) (MB)    (FT/S)
SABINE PASS      1300   77 82   80/  4/  5 1012.9
SEA RIM ST PARK  1300   76      60/  5/  6 1013.3
NORTH JETTY/GLS  1300   76 82                N/A
EAGLE POINT      1300   77 80  170/  8/ 10 1013.1
MORGANS POINT    1300   76      80/  5/  7 1012.8
MISSION/ARANSAS  1300          170/  3     1012.0
PORT O`CONNOR    1300          290/  1/  2   N/A
PORT ARANSAS     1300   84 84  160/  8/  8 1011.0
MALAQUITE BEACH  1300   83 85  220/  6/ 10 1010.1
BAFFIN BAY       1300   82 82  210/  4/  5 1010.4
PORT ISABEL      1300   83 84  160/  6/ 11 1010.4
$$

GMZ080-GMZ150>470-191500-
OFFSHORE BUOY REPORTS

STATION/POSITION TIME  TEMP    WIND        PRES    WAVE
                       AIR SEA DIR/SP/G            HT/PER
                 (UTC) (F)     (DEG/KT/KT) (MB)    (FT/S)
20 E GALVESTON   1400   75 81  190/  2/  4 1013.2    2/ 4
90 E PT ARANSAS  1400   84 85  160/  8/ 12 1011.6    2/ 5
35 NE PT MANSFLD 1300   84 85  170/ 12/ 14 1009.5    3/ 5
200 E PT ISABEL  1300   81 86  150/ 19/ 23 1010.6    3/ 5
$$